Farmington, NM

10:47 AM MST on February 25, 2018 (GMT -0700)
Four Corners Regional

Weather History for KFMN - July, 2013

Change the Weather History Date:

Wednesday, July 31, 2013

  Actual Average Record
Temperature  
Mean Temperature 76 °F -  
Max Temperature 96 °F 88 °F 99 °F (2002)
Min Temperature 57 °F 59 °F 55 °F (2000)
Cooling Degree Days 12    
Growing Degree Days 26 (Base 50)    
Moisture  
Dew Point 37 °F    
Average Humidity 23    
Maximum Humidity 47    
Minimum Humidity 5    
Precipitation  
Precipitation 0.00 in - - ()
Sea Level Pressure  
Sea Level Pressure 30.06 in    
Wind  
Wind Speed 6 mph (SSE)    
Max Wind Speed 10 mph    
Max Gust Speed -    
Visibility 10 miles    
Events      
Averages and records for this station are not official NWS values.
T = Trace of Precipitation, MM = Missing Value Source: NWS Daily Summary

Daily Weather History Graph

Daily Weather History Graph

Search for Another Location

Airport or City:

Trip Planner

Search our weather history database for the weather conditions in past years. The results will help you decide how hot, cold, wet, or windy it might be!

Date:

Astronomy

Jul. 31, 2013 Rise Set
Actual Time 6:18 AM MDT 8:19 PM MDT
Civil Twilight 5:49 AM MDT 8:48 PM MDT
Nautical Twilight 5:14 AM MDT 9:23 PM MDT
Astronomical Twilight 4:36 AM MDT 10:00 PM MDT
Moon 1:15 AM MDT (7/31) 3:38 PM MDT (7/31)
Length of Visible Light 14h 59m
Length of Day
14h 01m
Waning Crescent, 31% of the Moon is Illuminated
Jul 31
Waning Crescent
Aug 6
New
Aug 14
First Quarter
Aug 20
Full
Aug 28
Last Quarter

Hourly Weather History & Observations

Time (MDT) Temp. Dew Point Humidity Pressure Visibility Wind Dir Wind Speed Gust Speed Precip Events Conditions
1:53 AM 64.9 °F 37.0 °F 36% 30.09 in 10.0 mi NE 6.9 mph - N/A   Clear
2:53 AM 63.0 °F 36.0 °F 37% 30.09 in 10.0 mi East 4.6 mph - N/A   Clear
3:53 AM 60.1 °F 37.0 °F 42% 30.10 in 10.0 mi NNE 3.5 mph - N/A   Clear
4:53 AM 57.9 °F 37.0 °F 46% 30.12 in 10.0 mi ENE 4.6 mph - N/A   Clear
5:53 AM 57.0 °F 37.0 °F 47% 30.14 in 10.0 mi ENE 5.8 mph - N/A   Clear
6:53 AM 61.0 °F 39.9 °F 46% 30.15 in 10.0 mi East 5.8 mph - N/A   Clear
7:53 AM 66.0 °F 41.0 °F 40% 30.16 in 10.0 mi East 8.1 mph - N/A   Clear
8:53 AM 70.0 °F 42.1 °F 36% 30.17 in 10.0 mi ESE 6.9 mph - N/A   Clear
9:53 AM 77.0 °F 43.0 °F 30% 30.14 in 10.0 mi ESE 6.9 mph - N/A   Clear
10:53 AM 82.9 °F 42.1 °F 24% 30.14 in 10.0 mi ESE 5.8 mph - N/A   Clear
11:53 AM 88.0 °F 39.0 °F 18% 30.12 in 10.0 mi Variable 3.5 mph - N/A   Clear
12:53 PM 91.0 °F 33.1 °F 13% 30.10 in 10.0 mi SSW 6.9 mph - N/A   Clear
1:53 PM 93.0 °F 30.9 °F 11% 30.07 in 10.0 mi West 9.2 mph - N/A   Clear
2:53 PM 93.0 °F 32.0 °F 12% 30.06 in 10.0 mi SSW 6.9 mph - N/A   Clear
3:53 PM 93.9 °F 32.0 °F 11% 30.03 in 10.0 mi West 9.2 mph - N/A   Clear
4:53 PM 95.0 °F 34.0 °F 12% 30.00 in 10.0 mi SW 10.4 mph - N/A   Clear
5:53 PM 93.9 °F 34.0 °F 12% 29.98 in 10.0 mi SSW 4.6 mph - N/A   Clear
6:53 PM 91.0 °F 34.0 °F 13% 29.96 in 10.0 mi SW 9.2 mph - N/A   Clear
7:53 PM 90.0 °F 35.1 °F 14% 29.96 in 10.0 mi WSW 6.9 mph - N/A   Clear
8:53 PM 87.1 °F 36.0 °F 16% 29.96 in 10.0 mi WSW 3.5 mph - N/A   Clear
9:53 PM 82.9 °F 37.0 °F 19% 29.96 in 10.0 mi Calm Calm - N/A   Clear
10:53 PM 82.0 °F 36.0 °F 19% 29.96 in 10.0 mi NNE 4.6 mph - N/A   Clear
11:53 PM 82.0 °F 39.9 °F 22% 29.96 in 10.0 mi SSW 9.2 mph - N/A   Scattered Clouds